[[{"header":{"parameterUnit":"m.s-1","parameterCategory":1,"la1":30.2991,"la2":30.254,"lo1":-89.0895,"lo2":-89.0444,"dy":0.0017,"dx":0.0017,"nx":28,"ny":28,"refTime":"2025-04-17T09:00:00:Z","depth":0,"parameterNumber":2,"parameterNumberName":"U-component_of_WINDS"},"data":[0,0,0,0,0,0,0,0,0,0,0,0,0,0,0,0,0,0,0,0,0,0,0,0,0,0,0,0,0,0,0,0,0,0,0,0,0,0,0,0,0,0,0,0,0,0,0,0,0,0,0,0,0,0,0,0,0,0,-3.456,-3.4561,0,-3.4642,-3.4643,-3.4644,-3.4648,-3.4647,-3.4646,-3.4645,-3.4727,-3.473,-3.4733,0,0,0,0,0,0,0,0,0,0,0,0,0,-3.4406,-3.4408,-3.456,-3.4561,-3.4562,-3.4642,-3.4643,-3.4644,-3.4648,-3.4647,-3.4646,-3.4645,-3.4726,-3.473,-3.4733,0,0,0,0,0,0,0,0,0,0,0,0,0,-3.4479,-3.4409,-3.4559,-3.4573,-3.4576,-3.4641,-3.4643,-3.4644,-3.4648,-3.4647,-3.4646,-3.4644,-3.4725,-3.4729,-3.4734,-3.479,0,0,-3.4748,-3.475,0,0,0,0,0,0,0,0,-3.4474,-3.4484,-3.457,-3.4573,-3.4575,-3.4633,-3.4618,-3.4693,-3.4649,-3.4621,-3.4645,-3.4644,-3.4697,-3.4704,-3.4722,-3.4794,-3.4798,-3.4748,-3.4751,-3.4753,-3.4754,0,0,0,0,0,0,0,-3.4469,-3.4481,-3.4592,-3.4572,-3.4575,-3.4575,-3.4584,-3.4633,-3.4666,-3.4623,-3.4624,-3.4633,-3.4698,-3.4718,-3.4724,-3.4799,-3.4748,-3.4752,-3.4755,-3.4757,-3.4922,-3.4924,0,0,0,0,0,0,-3.4462,-3.4476,-3.4589,-3.4594,-3.452,-3.4579,-3.4589,-3.4616,-3.4665,-3.4671,-3.4634,-3.4633,-3.471,-3.4719,-3.4727,-3.4796,-3.4753,-3.4757,-3.476,-3.492,-3.4922,-3.4924,0,0,0,0,0,0,-3.4458,-3.4472,-3.4586,-3.4536,-3.455,-3.4584,-3.4614,-3.4618,-3.4638,-3.4674,-3.4679,-3.4649,-3.471,-3.472,-3.4775,-3.4799,-3.4759,-3.4763,-3.4918,-3.4921,-3.4923,-3.4935,0,0,0,0,0,0,-3.4454,-3.4471,-3.4492,-3.4536,-3.4553,-3.4633,-3.4615,-3.4621,-3.4646,-3.4645,-3.4689,-3.4694,-3.4709,-3.4768,-3.4779,-3.4804,-3.4767,-3.4916,-3.492,-3.4922,-3.4932,-3.4937,-3.4942,0,0,0,0,0,-3.4449,-3.4492,-3.4494,-3.4507,-3.4581,-3.4634,-3.4644,-3.4661,-3.4648,-3.467,-3.4694,-3.4693,-3.4795,-3.4773,-3.4786,-3.4813,-3.4915,-3.4919,-3.4922,-3.493,-3.4936,-3.4942,0,0,0,0,0,0,-3.4449,-3.4498,-3.45,-3.4559,-3.4593,-3.4635,-3.4663,-3.4667,-3.4704,-3.4701,-3.4721,-3.473,-3.4784,-3.4804,-3.478,-3.4871,-3.4853,-3.486,-3.4855,-3.4861,-3.4866,-3.4859,-3.4771,0,0,0,0,0,-3.4456,-3.4496,-3.4536,-3.4584,-3.4601,-3.4629,-3.4653,-3.4664,-3.4699,-3.4713,-3.474,-3.4773,-3.4813,-3.4839,-3.4877,-3.4936,-3.4945,-3.4961,-3.4966,-3.497,-3.4974,-3.5007,-3.5014,-3.4936,-3.4936,-3.4936,0,0,-3.4471,-3.4503,-3.4526,-3.4585,-3.4612,-3.4652,-3.4641,-3.4684,-3.4714,-3.4719,-3.4772,-3.4793,-3.4832,-3.4889,-3.4916,-3.4908,-3.4998,-3.4974,-3.4977,-3.498,-3.5012,-3.5019,-3.5025,-3.4939,-3.4938,-3.4938,0,0,-3.4518,-3.4546,-3.4589,-3.4617,-3.4659,-3.4678,-3.4689,-3.4731,-3.4745,-3.4799,-3.4804,-3.484,-3.4908,-3.4936,-3.4959,-3.5018,-3.5019,-3.5031,-3.5054,-3.5086,-3.5092,-3.5097,-3.5118,-3.5125,-3.5036,-3.5036,-3.5036,0,-3.453,-3.4591,-3.4611,-3.4654,-3.468,-3.4688,-3.4732,-3.4758,-3.481,-3.4827,-3.4818,-3.4904,-3.4931,-3.4995,-3.5009,-3.5028,-3.504,-3.5024,-3.5089,-3.5095,-3.5101,-3.512,-3.5128,-3.5037,-3.5037,-3.5036,-3.5036,0,-3.4605,-3.4647,-3.4677,-3.4728,-3.4757,-3.48,-3.4826,-3.4854,-3.4862,-3.4882,-3.4937,-3.497,-3.5015,-3.5032,-3.504,-3.5097,-3.5091,-3.5086,-3.5068,-3.5109,-3.5127,-3.5135,-3.5038,-3.5038,-3.5037,-3.5037,0,0,-3.4652,-3.4715,-3.4725,-3.4748,-3.4796,-3.4829,-3.4873,-3.4918,-3.4941,-3.4978,-3.5014,-3.5073,-3.5069,-3.5095,-3.5107,-3.5135,-3.5179,-3.5126,-3.5127,-3.5134,-3.5243,-3.5246,-3.5254,-3.5181,-3.5183,-3.5184,-3.524,0,-3.4703,-3.4782,-3.4801,-3.4868,-3.4907,-3.4917,-3.4955,-3.4988,-3.5008,-3.5045,-3.5067,-3.5108,-3.51,-3.5115,-3.5144,-3.5168,-3.5201,-3.5164,-3.5214,-3.5216,-3.5202,-3.5264,-3.5266,-3.5317,-3.5247,-3.5248,-3.5249,0,-3.4773,-3.4812,-3.4882,-3.4926,-3.4943,-3.4977,-3.502,-3.5055,-3.5093,-3.5106,-3.5136,-3.5146,-3.5192,-3.5174,-3.5237,-3.5212,-3.5234,-3.5249,-3.5251,-3.5255,-3.5234,-3.5268,-3.5334,-3.5341,-3.5261,-3.526,-3.5259,0,-3.4799,-3.4869,-3.492,-3.494,-3.4992,-3.5016,-3.5039,-3.5076,-3.5102,-3.514,-3.5158,-3.5201,-3.5224,-3.5257,-3.5278,-3.5263,-3.5339,-3.5323,-3.535,-3.5349,-3.5364,-3.5362,-3.5432,-3.5381,-3.5381,-3.5381,-3.5381,0,-3.4853,-3.4896,-3.4933,-3.4964,-3.5013,-3.5035,-3.5082,-3.5105,-3.5138,-3.5174,-3.5186,-3.5219,-3.5245,-3.5282,-3.5299,-3.5349,-3.5359,-3.5371,-3.5374,-3.5369,-3.5367,-3.5382,-3.5378,-3.5383,-3.5382,-3.5382,-3.5382,0,-3.489,-3.4916,-3.4973,-3.5018,-3.5031,-3.5064,-3.5103,-3.5133,-3.5155,-3.52,-3.5212,-3.5246,-3.529,-3.5315,-3.537,-3.5382,-3.5437,-3.5439,-3.5424,-3.5425,-3.545,-3.5447,-3.5531,-3.5543,-3.5485,-3.5485,-3.5486,0,-3.4922,-3.4955,-3.5004,-3.5029,-3.5053,-3.5093,-3.512,-3.5144,-3.5172,-3.5219,-3.5244,-3.529,-3.5327,-3.5397,-3.5426,-3.5469,-3.5472,-3.5498,-3.5478,-3.5471,-3.5471,-3.5468,-3.5471,-3.5501,-3.5502,-3.5502,-3.5502,0,-3.4976,-3.4988,-3.5027,-3.5071,-3.5103,-3.5139,-3.5174,-3.5194,-3.5224,-3.5255,-3.5301,-3.533,-3.5387,-3.5432,-3.5477,-3.55,-3.5506,-3.5509,-3.5517,-3.5511,-3.55,-3.5505,-3.5431,-3.5506,-3.5506,-3.5506,-3.5505,-3.5505,-3.501,-3.504,-3.508,-3.5123,-3.5152,-3.5185,-3.5217,-3.5243,-3.5282,-3.533,-3.5343,-3.5391,-3.5429,-3.5491,-3.5515,-3.5553,-3.5548,-3.556,-3.5563,-3.5565,-3.5566,-3.5496,-3.5562,-3.5561,-3.5561,-3.5561,-3.5561,0,-3.5064,-3.509,-3.513,-3.5179,-3.5213,-3.5218,-3.5257,-3.5285,-3.5328,-3.5363,-3.54,-3.5453,-3.5497,-3.553,-3.5575,-3.5599,-3.5602,-3.5609,-3.5607,-3.5612,-3.5568,-3.5556,-3.5605,-3.5605,-3.5605,-3.5605,-3.5605,-3.5605,-3.5095,-3.5146,-3.5163,-3.5229,-3.5255,-3.5302,-3.5324,-3.5355,-3.5384,-3.5442,-3.5479,-3.5501,-3.5535,-3.5583,-3.5623,-3.5632,-3.5647,-3.5653,-3.5662,-3.562,-3.5615,-3.5611,-3.5599,-3.5657,-3.5657,-3.5703,-3.5703,-3.5704]},{"header":{"parameterUnit":"m.s-1","parameterCategory":1,"la1":30.2991,"la2":30.254,"lo1":-89.0895,"lo2":-89.0444,"dy":0.0017,"dx":0.0017,"nx":28,"ny":28,"refTime":"2025-04-17T09:00:00:Z","depth":0,"parameterNumber":3,"parameterNumberName":"V-component_of_WINDS"},"data":[0,0,0,0,0,0,0,0,0,0,0,0,0,0,0,0,0,0,0,0,0,0,0,0,0,0,0,0,0,0,0,0,0,0,0,0,0,0,0,0,0,0,0,0,0,0,0,0,0,0,0,0,0,0,0,0,0,0,4.0472,4.0473,0,4.0597,4.0598,4.06,4.063,4.0629,4.0628,4.0627,4.0753,4.0757,4.0761,0,0,0,0,0,0,0,0,0,0,0,0,0,4.0257,4.0261,4.0471,4.0473,4.0475,4.0597,4.0598,4.06,4.063,4.0629,4.0628,4.0627,4.0751,4.0756,4.0761,0,0,0,0,0,0,0,0,0,0,0,0,0,4.0363,4.0262,4.0471,4.0504,4.0509,4.0596,4.0598,4.06,4.063,4.0629,4.0628,4.0627,4.075,4.0756,4.0762,4.0825,0,0,4.0781,4.0783,0,0,0,0,0,0,0,0,4.0357,4.0371,4.0498,4.0502,4.0507,4.0597,4.0569,4.0675,4.0631,4.0584,4.0627,4.0626,4.0702,4.0712,4.0738,4.083,4.0836,4.0781,4.0785,4.0788,4.0789,0,0,0,0,0,0,0,4.0349,4.0365,4.0521,4.05,4.0505,4.0513,4.0526,4.0589,4.0648,4.0588,4.059,4.0605,4.0704,4.0732,4.0741,4.0838,4.0781,4.0787,4.079,4.0793,4.0991,4.0992,0,0,0,0,0,0,4.0337,4.0359,4.0517,4.0525,4.0427,4.0517,4.0533,4.0569,4.0647,4.0658,4.0606,4.0606,4.0722,4.0734,4.0745,4.0826,4.0788,4.0793,4.0797,4.0989,4.0991,4.0993,0,0,0,0,0,0,4.0332,4.035,4.0512,4.0443,4.0464,4.0523,4.0563,4.0572,4.06,4.0661,4.0672,4.0624,4.0721,4.0737,4.0806,4.083,4.0796,4.0802,4.0987,4.099,4.0992,4.0986,0,0,0,0,0,0,4.0326,4.0348,4.0373,4.0443,4.0467,4.057,4.0564,4.0575,4.0611,4.0612,4.0681,4.0691,4.0722,4.0796,4.0812,4.0838,4.0806,4.0985,4.0988,4.0991,4.0984,4.0987,4.099,0,0,0,0,0,4.0318,4.0365,4.0374,4.0393,4.0499,4.0571,4.0585,4.0621,4.0613,4.0638,4.0678,4.0689,4.0825,4.0803,4.0821,4.0849,4.0984,4.0987,4.0991,4.0982,4.0987,4.099,0,0,0,0,0,0,4.0295,4.0375,4.0386,4.0457,4.0507,4.0576,4.0609,4.0624,4.0677,4.0675,4.0716,4.0732,4.0798,4.0831,4.0804,4.0916,4.0904,4.0912,4.0892,4.0897,4.09,4.0891,4.0812,0,0,0,0,0,4.0298,4.0351,4.0417,4.0474,4.0499,4.055,4.0582,4.0606,4.0659,4.068,4.0725,4.0775,4.083,4.0865,4.0918,4.0989,4.1005,4.1018,4.1021,4.1023,4.1029,4.1071,4.1078,4.1004,4.1004,4.1004,0,0,4.0305,4.0355,4.0386,4.0471,4.0512,4.0566,4.0567,4.0623,4.0663,4.0688,4.0757,4.0791,4.0851,4.0921,4.0954,4.095,4.1053,4.1028,4.1029,4.1034,4.1075,4.1082,4.1088,4.1007,4.1006,4.1006,0,0,4.0346,4.0389,4.0442,4.0484,4.0548,4.0582,4.0595,4.0662,4.0687,4.0756,4.0777,4.0825,4.0918,4.096,4.0994,4.1053,4.1066,4.1069,4.1087,4.1127,4.1133,4.1138,4.116,4.1168,4.1075,4.1075,4.1075,0,4.0346,4.0428,4.0466,4.0523,4.056,4.0587,4.0641,4.068,4.0758,4.0783,4.0777,4.0896,4.0938,4.102,4.1035,4.106,4.1077,4.1062,4.1129,4.1135,4.114,4.1162,4.117,4.1075,4.1075,4.1075,4.1075,0,4.0426,4.0483,4.0518,4.0595,4.0636,4.069,4.0737,4.0774,4.0794,4.0829,4.09,4.0952,4.1017,4.1038,4.1057,4.1123,4.1119,4.1121,4.111,4.1147,4.1168,4.1177,4.1075,4.1075,4.1075,4.1075,0,0,4.0455,4.0554,4.0566,4.0602,4.0675,4.072,4.0776,4.0842,4.0873,4.0926,4.0975,4.1054,4.1057,4.1095,4.112,4.1155,4.1201,4.1153,4.1155,4.1161,4.1279,4.1277,4.1286,4.121,4.1212,4.1213,4.1274,0,4.0505,4.0608,4.0645,4.0729,4.0783,4.0811,4.086,4.091,4.0945,4.0995,4.1032,4.1089,4.1087,4.1111,4.1147,4.1188,4.1225,4.1184,4.1256,4.1258,4.1241,4.1297,4.1296,4.1351,4.1282,4.1284,4.1285,0,4.0577,4.0634,4.0724,4.0793,4.0817,4.0861,4.0925,4.0973,4.1031,4.1054,4.1098,4.112,4.1181,4.1167,4.1251,4.1222,4.1254,4.1279,4.1282,4.129,4.1274,4.1308,4.1369,4.1377,4.1298,4.1297,4.1296,0,4.0591,4.0689,4.0756,4.0786,4.0868,4.0898,4.0934,4.0991,4.1029,4.1085,4.111,4.1171,4.1205,4.1252,4.1292,4.1278,4.1373,4.1362,4.1394,4.1393,4.1413,4.1411,4.148,4.1432,4.1432,4.1431,4.1431,0,4.0644,4.0698,4.0764,4.0805,4.0867,4.0909,4.097,4.1007,4.1058,4.1107,4.1134,4.118,4.1228,4.128,4.1311,4.1377,4.1392,4.1412,4.142,4.141,4.1408,4.1432,4.1429,4.1434,4.1433,4.1433,4.1432,0,4.0669,4.0715,4.079,4.0863,4.0882,4.0925,4.0987,4.1028,4.1064,4.1127,4.1144,4.12,4.1263,4.1307,4.1387,4.1408,4.148,4.1486,4.146,4.1464,4.1494,4.1491,4.1582,4.1597,4.1537,4.1538,4.1538,0,4.07,4.0743,4.0821,4.0856,4.0893,4.0949,4.0988,4.1032,4.1072,4.1143,4.1176,4.1241,4.1296,4.1395,4.1443,4.1505,4.1514,4.1542,4.1523,4.1513,4.1516,4.1513,4.1518,4.1544,4.1545,4.1545,4.1545,0,4.0751,4.0772,4.0828,4.0894,4.094,4.0993,4.1046,4.1073,4.1127,4.117,4.1236,4.1278,4.1361,4.1426,4.1493,4.1529,4.1547,4.1551,4.1562,4.1553,4.1537,4.1547,4.1469,4.1548,4.1548,4.1548,4.1548,4.1548,4.0781,4.0822,4.0883,4.0946,4.0991,4.104,4.1083,4.1126,4.1182,4.1254,4.1276,4.1344,4.1403,4.1496,4.1533,4.1587,4.1585,4.16,4.1605,4.1608,4.1609,4.1527,4.1599,4.1599,4.1599,4.1599,4.1599,0,4.0835,4.0877,4.0933,4.1008,4.1057,4.1071,4.1131,4.1171,4.1231,4.1285,4.1339,4.1415,4.1478,4.1532,4.1598,4.1631,4.1641,4.1647,4.1645,4.1654,4.1606,4.159,4.1638,4.1638,4.1638,4.1638,4.1638,4.1638,4.0869,4.0938,4.0967,4.1059,4.1101,4.1169,4.1202,4.1248,4.1292,4.1376,4.143,4.1465,4.1519,4.159,4.1648,4.1663,4.1686,4.1691,4.1707,4.1661,4.1657,4.1652,4.1638,4.1695,4.1695,4.175,4.1751,4.1751]}]]